Weather History for KORE - September, 2014

Change the Weather History Date:

Monday, September 1, 2014

  Actual Average (WUND) Record (WUND)
Temperature  
Mean Temperature 75 °F -  
Max Temperature 84 °F - - (-1)
Min Temperature 66 °F - - (-1)
Cooling Degree Days 10    
Growing Degree Days 25 (Base 50)    
Moisture  
Dew Point 68 °F    
Average Humidity 86    
Maximum Humidity 100    
Minimum Humidity 53    
Precipitation  
Precipitation 0.00 in - - ()
Sea Level Pressure  
Sea Level Pressure 29.97 in    
Wind  
Wind Speed 3 mph (SSW)    
Max Wind Speed 9 mph    
Max Gust Speed -    
Visibility 7 miles    
Events Fog    
Averages and records for this station are not official NWS values.
T = Trace of Precipitation, MM = Missing Value Source: NWS Daily Summary

Daily Weather History Graph

Daily Weather History Graph

Search for Another Location

Airport or City:

Trip Planner

Search our weather history database for the weather conditions in past years. The results will help you decide how hot, cold, wet, or windy it might be!

Date:

Astronomy

Sep. 01, 2014 Rise Set
Actual Time 6:14 AM EDT 7:23 PM EDT
Civil Twilight 5:45 AM EDT 7:52 PM EDT
Nautical Twilight 5:10 AM EDT 8:26 PM EDT
Astronomical Twilight 4:33 AM EDT 9:03 PM EDT
Moon 1:05 PM EDT (9/1) 11:13 PM EDT (9/1)
Length of Visible Light 14h 07m
Length of Day
13h 09m
Waxing Crescent, 42% of the Moon is Illuminated
Sep 1
Waxing Crescent
Sep 2
First Quarter
Sep 8
Full
Sep 15
Last Quarter
Sep 24
New

Hourly Weather History & Observations

Time (EDT) Temp. Heat Index Dew Point Humidity Pressure Visibility Wind Dir Wind Speed Gust Speed Precip Events Conditions
12:52 AM 72.0 °F - 70.0 °F 93% 29.96 in 10.0 mi South 5.8 mph - N/A   Scattered Clouds
1:08 AM 72.0 °F - 70.0 °F 93% 29.97 in 10.0 mi SSW 5.8 mph - N/A   Scattered Clouds
1:52 AM 71.1 °F - 70.0 °F 96% 29.97 in 9.0 mi SW 3.5 mph - N/A   Clear
2:52 AM 71.1 °F - 69.1 °F 93% 29.96 in 9.0 mi SSW 5.8 mph - N/A   Clear
3:52 AM 70.0 °F - 68.0 °F 93% 29.97 in 6.0 mi Calm Calm - N/A   Clear
4:19 AM 68.0 °F - 68.0 °F 100% 29.97 in 2.0 mi Calm Calm - N/A   Clear
4:22 AM 68.0 °F - 68.0 °F 100% 29.98 in 1.5 mi Calm Calm - N/A   Partly Cloudy
4:25 AM 68.0 °F - 66.9 °F 96% 29.98 in 1.0 mi Calm Calm - N/A   Mist
4:33 AM 68.0 °F - 66.9 °F 96% 29.97 in 1.5 mi Calm Calm - N/A   Partly Cloudy
4:36 AM 68.0 °F - 66.9 °F 96% 29.98 in 3.0 mi SSW 3.5 mph - N/A   Partly Cloudy
4:52 AM 70.0 °F - 69.1 °F 97% 29.97 in 8.0 mi SSE 3.5 mph - N/A   Clear
5:20 AM 69.1 °F - 68.0 °F 96% 29.98 in 7.0 mi Calm Calm - N/A   Partly Cloudy
5:45 AM 68.0 °F - 66.9 °F 96% 29.99 in 5.0 mi Calm Calm - N/A   Mostly Cloudy
5:52 AM 68.0 °F - 66.9 °F 96% 29.99 in 5.0 mi Calm Calm - N/A   Scattered Clouds
6:36 AM 66.9 °F - 66.0 °F 97% 30.01 in 2.5 mi SSW 4.6 mph - N/A   Clear
6:44 AM 66.9 °F - 66.9 °F 100% 30.00 in 1.2 mi SSW 4.6 mph - N/A   Clear
6:52 AM 68.0 °F - 66.9 °F 96% 30.00 in 0.5 mi Calm Calm - N/A Fog Fog
6:57 AM 66.9 °F - 66.9 °F 100% 30.01 in 1.2 mi SSW 3.5 mph - N/A   Scattered Clouds
7:02 AM 66.9 °F - 66.9 °F 100% 30.01 in 0.8 mi SSW 3.5 mph - N/A   Mist
7:16 AM 68.0 °F - 68.0 °F 100% 30.01 in 1.8 mi Calm Calm - N/A   Scattered Clouds
7:19 AM 69.1 °F - 68.0 °F 96% 30.01 in 3.0 mi Calm Calm - N/A   Scattered Clouds
7:52 AM 71.1 °F - 69.1 °F 93% 30.00 in 9.0 mi Calm Calm - N/A   Scattered Clouds
8:23 AM 73.0 °F - 70.0 °F 90% 30.01 in 10.0 mi Calm Calm - N/A   Mostly Cloudy
8:52 AM 73.9 °F - 70.0 °F 87% 30.00 in 10.0 mi South 3.5 mph - N/A   Partly Cloudy
9:23 AM 75.9 °F - 70.0 °F 82% 30.00 in 10.0 mi ENE 3.5 mph - N/A   Mostly Cloudy
9:37 AM 78.1 °F - 69.1 °F 74% 30.00 in 10.0 mi Calm Calm - N/A   Scattered Clouds
9:45 AM 77.0 °F - 69.1 °F 76% 29.99 in 10.0 mi Variable 3.5 mph - N/A   Mostly Cloudy
9:52 AM 78.1 °F - 66.9 °F 68% 29.99 in 10.0 mi Variable 5.8 mph - N/A   Mostly Cloudy
10:00 AM 78.1 °F - 68.0 °F 71% 30.00 in 10.0 mi West 4.6 mph - N/A   Scattered Clouds
11:52 AM 82.0 °F 83.4 °F 64.0 °F 54% 29.97 in 10.0 mi Variable 5.8 mph - N/A   Scattered Clouds
12:52 PM 82.0 °F 84.1 °F 66.0 °F 58% 29.97 in 10.0 mi West 8.1 mph - N/A   Mostly Cloudy
1:52 PM 82.9 °F 85.4 °F 66.9 °F 58% 29.96 in 10.0 mi Variable 3.5 mph - N/A   Mostly Cloudy
2:52 PM 84.9 °F 87.1 °F 66.0 °F 53% 29.94 in 10.0 mi WSW 6.9 mph - N/A   Partly Cloudy
3:52 PM 84.0 °F 87.0 °F 68.0 °F 58% 29.93 in 10.0 mi Variable 3.5 mph - N/A   Clear
4:52 PM 84.0 °F 87.0 °F 68.0 °F 58% 29.92 in 10.0 mi SSW 9.2 mph - N/A   Partly Cloudy
5:52 PM 84.0 °F 87.8 °F 69.1 °F 61% 29.92 in 10.0 mi Variable 4.6 mph - N/A   Clear
6:52 PM 80.1 °F 83.6 °F 71.1 °F 74% 29.92 in 10.0 mi SSW 3.5 mph - N/A   Clear
7:52 PM 75.0 °F - 71.1 °F 87% 29.93 in 10.0 mi Calm Calm - N/A   Clear
8:52 PM 72.0 °F - 70.0 °F 93% 29.95 in 9.0 mi Calm Calm - N/A   Clear
9:52 PM 70.0 °F - 69.1 °F 97% 29.95 in 9.0 mi Calm Calm - N/A   Clear
10:52 PM 69.1 °F - 68.0 °F 96% 29.95 in 8.0 mi Calm Calm - N/A   Partly Cloudy
10:59 PM 70.0 °F - 68.0 °F 93% 29.96 in 1.8 mi Calm Calm - N/A   Scattered Clouds
11:07 PM 69.1 °F - 68.0 °F 96% 29.96 in 3.0 mi Calm Calm - N/A   Mostly Cloudy
11:52 PM 69.1 °F - 68.0 °F 96% 29.95 in 8.0 mi Calm Calm - N/A   Scattered Clouds